DAL8990 KEYW-KJAX

Flight info

Callsign DAL8990
Flight time 1h 11m
Altitude 37000
Route CARNU RVERO ORL POGIE2
Aircraft A319/M-FAA/L

Departure

Time 2026-05-04 02:24
Airport Key West International Airport (KEYW)

Arrival

Time 2026-05-04 03:36
Airport Jacksonville International Airport (KJAX)
Time Latitude Longitude Altitude Speed Heading
2026-05-04 01:53 24.55473 -81.75419 14 ft 0 kts 228°
2026-05-04 02:12 24.55474 -81.75417 -4 ft 2 kts 229°
2026-05-04 02:13 24.55486 -81.75396 15 ft 4 kts 280°
2026-05-04 02:13 24.55473 -81.75383 17 ft 4 kts 351°
2026-05-04 02:13 24.55454 -81.75381 15 ft 0 kts 360°
2026-05-04 02:17 24.55458 -81.75381 14 ft 1 kts 359°
2026-05-04 02:18 24.55465 -81.75381 14 ft 0 kts 359°
2026-05-04 02:18 24.55484 -81.75381 15 ft 6 kts 359°
2026-05-04 02:18 24.55521 -81.75384 17 ft 2 kts 330°
2026-05-04 02:18 24.55532 -81.75408 17 ft 6 kts 284°
2026-05-04 02:19 24.55530 -81.75464 16 ft 9 kts 269°
2026-05-04 02:19 24.55530 -81.75543 15 ft 11 kts 269°
2026-05-04 02:19 24.55528 -81.75635 15 ft 13 kts 269°
2026-05-04 02:19 24.55527 -81.75734 15 ft 14 kts 269°
2026-05-04 02:20 24.55526 -81.75845 14 ft 16 kts 269°
2026-05-04 02:20 24.55524 -81.75978 10 ft 19 kts 269°
2026-05-04 02:20 24.55523 -81.76133 8 ft 21 kts 269°
2026-05-04 02:20 24.55521 -81.76273 8 ft 18 kts 270°
2026-05-04 02:21 24.55521 -81.76404 8 ft 15 kts 270°
2026-05-04 02:21 24.55520 -81.76494 7 ft 9 kts 269°
2026-05-04 02:21 24.55520 -81.76562 7 ft 9 kts 269°
2026-05-04 02:21 24.55525 -81.76627 9 ft 8 kts 297°
2026-05-04 02:22 24.55527 -81.76629 11 ft 0 kts 302°
2026-05-04 02:22 24.55528 -81.76631 11 ft 2 kts 302°
2026-05-04 02:22 24.55575 -81.76668 9 ft 11 kts 338°
2026-05-04 02:23 24.55602 -81.76652 9 ft 2 kts 87°
2026-05-04 02:23 24.55602 -81.76651 9 ft 0 kts 87°
2026-05-04 02:24 24.55605 -81.76503 8 ft 58 kts 89°
2026-05-04 02:24 24.55613 -81.75773 13 ft 129 kts 89°
2026-05-04 02:24 24.55651 -81.74654 368 ft 151 kts 84°
2026-05-04 02:24 24.55671 -81.73549 1043 ft 150 kts 88°
2026-05-04 02:25 24.55675 -81.72401 1746 ft 152 kts 88°
2026-05-04 02:25 24.55918 -81.71239 2108 ft 173 kts 56°
2026-05-04 02:25 24.56892 -81.70362 2467 ft 193 kts 29°
2026-05-04 02:25 24.58112 -81.69566 2842 ft 216 kts 28°
2026-05-04 02:26 24.59434 -81.68711 3235 ft 236 kts 28°
2026-05-04 02:26 24.60909 -81.67751 3855 ft 251 kts 28°
2026-05-04 02:26 24.62426 -81.66755 4656 ft 258 kts 28°
2026-05-04 02:26 24.63981 -81.65731 5492 ft 264 kts 29°
2026-05-04 02:27 24.65570 -81.64682 6348 ft 269 kts 28°
2026-05-04 02:27 24.67193 -81.63609 7090 ft 281 kts 29°
2026-05-04 02:27 24.68926 -81.62464 7758 ft 296 kts 28°
2026-05-04 02:27 24.70706 -81.61282 8640 ft 302 kts 28°
2026-05-04 02:28 24.72523 -81.60071 9531 ft 308 kts 28°
2026-05-04 02:28 24.74379 -81.58833 10229 ft 320 kts 28°
2026-05-04 02:28 24.76351 -81.57525 10635 ft 340 kts 28°
2026-05-04 02:28 24.78401 -81.56167 11359 ft 347 kts 28°
2026-05-04 02:29 24.80490 -81.54780 12135 ft 353 kts 28°
2026-05-04 02:29 24.82609 -81.53371 12900 ft 358 kts 28°
2026-05-04 02:29 24.84759 -81.51943 13658 ft 363 kts 27°
2026-05-04 02:29 24.86934 -81.50498 14326 ft 368 kts 27°
2026-05-04 02:30 24.89107 -81.49053 14976 ft 372 kts 27°
2026-05-04 02:30 24.91335 -81.47570 15636 ft 377 kts 27°
2026-05-04 02:30 24.93596 -81.46062 16280 ft 381 kts 27°
2026-05-04 02:30 24.95876 -81.44542 16925 ft 385 kts 27°
2026-05-04 02:31 24.98184 -81.43003 17567 ft 390 kts 27°
2026-05-04 02:31 25.00517 -81.41449 18201 ft 394 kts 27°
2026-05-04 02:31 25.02879 -81.39878 18765 ft 398 kts 27°
2026-05-04 02:31 25.05258 -81.38292 19317 ft 402 kts 27°
2026-05-04 02:32 25.07662 -81.36686 19881 ft 405 kts 27°
2026-05-04 02:32 25.10091 -81.35087 20404 ft 409 kts 24°
2026-05-04 02:32 25.12697 -81.33850 20932 ft 406 kts 12°
2026-05-04 02:32 25.15443 -81.33182 21476 ft 402 kts
2026-05-04 02:33 25.18218 -81.33085 22031 ft 398 kts 349°
2026-05-04 02:33 25.20971 -81.33393 22596 ft 399 kts 347°
2026-05-04 02:33 25.23740 -81.33724 23160 ft 402 kts 347°
2026-05-04 02:33 25.26533 -81.34056 23704 ft 405 kts 347°
2026-05-04 02:34 25.29205 -81.34373 24147 ft 408 kts 347°
2026-05-04 02:34 25.32042 -81.34708 24626 ft 411 kts 347°
2026-05-04 02:34 25.34893 -81.35045 25092 ft 413 kts 347°
2026-05-04 02:34 25.37763 -81.35382 25549 ft 416 kts 346°
2026-05-04 02:35 25.40650 -81.35724 26005 ft 419 kts 346°
2026-05-04 02:35 25.43567 -81.36074 26434 ft 423 kts 346°
2026-05-04 02:35 25.46459 -81.36424 26862 ft 425 kts 345°
2026-05-04 02:35 25.49412 -81.36778 27315 ft 428 kts 345°
2026-05-04 02:36 25.52382 -81.37135 27747 ft 430 kts 345°
2026-05-04 02:36 25.55366 -81.37491 28172 ft 432 kts 345°
2026-05-04 02:36 25.58365 -81.37848 28596 ft 435 kts 345°
2026-05-04 02:36 25.61383 -81.38204 29019 ft 437 kts 345°
2026-05-04 02:37 25.64419 -81.38562 29450 ft 440 kts 345°
2026-05-04 02:37 25.67473 -81.38921 29875 ft 442 kts 345°
2026-05-04 02:37 25.70540 -81.39283 30307 ft 444 kts 344°
2026-05-04 02:37 25.73619 -81.39650 30681 ft 446 kts 344°
2026-05-04 02:38 25.76708 -81.40021 30933 ft 448 kts 344°
2026-05-04 02:38 25.79817 -81.40395 31033 ft 450 kts 344°
2026-05-04 02:38 25.86046 -81.41138 31056 ft 450 kts 344°
2026-05-04 02:39 25.92271 -81.41891 31059 ft 450 kts 344°
2026-05-04 02:39 25.98506 -81.42635 31057 ft 450 kts 344°
2026-05-04 02:40 26.04694 -81.43364 31057 ft 449 kts 343°
2026-05-04 02:40 26.10904 -81.44108 31062 ft 449 kts 343°
2026-05-04 02:41 26.17132 -81.44861 31062 ft 449 kts 343°
2026-05-04 02:41 26.22298 -81.45482 31062 ft 449 kts 343°
2026-05-04 02:42 26.27777 -81.46139 31062 ft 449 kts 343°
2026-05-04 02:42 26.33960 -81.46888 31065 ft 449 kts 343°
2026-05-04 02:43 26.40177 -81.47637 31063 ft 449 kts 343°
2026-05-04 02:43 26.46395 -81.48387 31064 ft 449 kts 343°
2026-05-04 02:44 26.52609 -81.49141 31065 ft 449 kts 343°
2026-05-04 02:44 26.58829 -81.49889 31065 ft 449 kts 343°
2026-05-04 02:45 26.65028 -81.50631 31060 ft 440 kts 343°
2026-05-04 02:45 26.68007 -81.50973 31064 ft 422 kts 342°
2026-05-04 02:45 26.70889 -81.51304 31066 ft 412 kts 342°
2026-05-04 02:46 26.75596 -81.51878 31070 ft 407 kts 342°
2026-05-04 02:46 26.81211 -81.52587 31067 ft 406 kts 342°
2026-05-04 02:47 26.86821 -81.53288 31074 ft 406 kts 342°
2026-05-04 02:47 26.92435 -81.53971 31122 ft 406 kts 341°
2026-05-04 02:48 26.98058 -81.54654 31096 ft 406 kts 341°
2026-05-04 02:48 27.03682 -81.55342 31082 ft 406 kts 341°
2026-05-04 02:49 27.09295 -81.56025 31073 ft 406 kts 341°
2026-05-04 02:49 27.14913 -81.56712 31071 ft 406 kts 341°
2026-05-04 02:50 27.20499 -81.57398 31068 ft 405 kts 341°
2026-05-04 02:50 27.26110 -81.58088 31097 ft 406 kts 341°
2026-05-04 02:51 27.31739 -81.58776 31082 ft 406 kts 341°
2026-05-04 02:51 27.37353 -81.59467 31074 ft 406 kts 341°
2026-05-04 02:52 27.43107 -81.59433 31072 ft 430 kts 360°
2026-05-04 02:52 27.48963 -81.58073 31068 ft 432 kts
2026-05-04 02:53 27.54869 -81.56698 31071 ft 432 kts
2026-05-04 02:53 27.60757 -81.55338 31069 ft 432 kts
2026-05-04 02:54 27.66655 -81.53968 31074 ft 432 kts
2026-05-04 02:54 27.72553 -81.52597 31083 ft 432 kts
2026-05-04 02:55 27.81308 -81.50563 31128 ft 432 kts
2026-05-04 02:56 27.87232 -81.49188 31103 ft 439 kts
2026-05-04 02:56 27.93157 -81.47801 31098 ft 433 kts
2026-05-04 02:57 27.99054 -81.46428 31097 ft 435 kts
2026-05-04 02:57 28.04961 -81.45045 31106 ft 433 kts
2026-05-04 02:58 28.10840 -81.43678 31164 ft 432 kts
2026-05-04 02:58 28.16730 -81.42306 31126 ft 431 kts
2026-05-04 02:59 28.22569 -81.40940 31124 ft 431 kts
2026-05-04 02:59 28.28455 -81.39562 31127 ft 431 kts
2026-05-04 03:00 28.34333 -81.38187 31118 ft 431 kts
2026-05-04 03:00 28.40202 -81.36806 31163 ft 431 kts
2026-05-04 03:01 28.46076 -81.35427 31145 ft 431 kts
2026-05-04 03:01 28.51949 -81.34045 31140 ft 430 kts
2026-05-04 03:01 28.54878 -81.33664 31130 ft 417 kts 350°
2026-05-04 03:02 28.57761 -81.33811 30755 ft 412 kts 343°
2026-05-04 03:02 28.60608 -81.34088 30358 ft 409 kts 344°
2026-05-04 03:02 28.63436 -81.34372 29916 ft 405 kts 344°
2026-05-04 03:02 28.66201 -81.34655 29453 ft 402 kts 344°
2026-05-04 03:03 28.68993 -81.34940 29031 ft 401 kts 344°
2026-05-04 03:03 28.71765 -81.35222 28562 ft 400 kts 344°
2026-05-04 03:03 28.74532 -81.35502 28082 ft 398 kts 344°
2026-05-04 03:03 28.77288 -81.35779 27618 ft 397 kts 344°
2026-05-04 03:04 28.80040 -81.36054 27164 ft 395 kts 345°
2026-05-04 03:04 28.82768 -81.36324 26712 ft 393 kts 345°
2026-05-04 03:04 28.85481 -81.36590 26265 ft 390 kts 345°
2026-05-04 03:04 28.88178 -81.36853 25834 ft 388 kts 345°
2026-05-04 03:05 28.90863 -81.37117 25409 ft 386 kts 345°
2026-05-04 03:05 28.93532 -81.37383 24989 ft 384 kts 345°
2026-05-04 03:05 28.96184 -81.37649 24575 ft 381 kts 345°
2026-05-04 03:05 28.98825 -81.37913 24209 ft 380 kts 345°
2026-05-04 03:06 29.01431 -81.38173 23804 ft 378 kts 345°
2026-05-04 03:06 29.04051 -81.38437 23340 ft 377 kts 345°
2026-05-04 03:06 29.06650 -81.38700 22865 ft 375 kts 345°
2026-05-04 03:06 29.09243 -81.38963 22398 ft 372 kts 345°
2026-05-04 03:07 29.11813 -81.39223 21936 ft 370 kts 345°
2026-05-04 03:07 29.14375 -81.39482 21481 ft 369 kts 346°
2026-05-04 03:07 29.16925 -81.39736 21037 ft 367 kts 346°
2026-05-04 03:07 29.19466 -81.39989 20592 ft 365 kts 346°
2026-05-04 03:08 29.21993 -81.40243 20158 ft 363 kts 346°
2026-05-04 03:08 29.24507 -81.40497 19727 ft 362 kts 346°
2026-05-04 03:08 29.27011 -81.40751 19322 ft 361 kts 346°
2026-05-04 03:08 29.29516 -81.41003 18901 ft 359 kts 346°
2026-05-04 03:09 29.31999 -81.41255 18494 ft 358 kts 346°
2026-05-04 03:09 29.34473 -81.41506 18032 ft 356 kts 346°
2026-05-04 03:09 29.36934 -81.41755 17556 ft 355 kts 347°
2026-05-04 03:09 29.39394 -81.42001 17087 ft 353 kts 347°
2026-05-04 03:10 29.41833 -81.42243 16685 ft 351 kts 347°
2026-05-04 03:10 29.44246 -81.42480 16268 ft 343 kts 347°
2026-05-04 03:10 29.46582 -81.42706 15870 ft 332 kts 347°
2026-05-04 03:10 29.48853 -81.42928 15482 ft 324 kts 347°
2026-05-04 03:11 29.51086 -81.43152 15093 ft 320 kts 347°
2026-05-04 03:11 29.53289 -81.43378 14696 ft 316 kts 347°
2026-05-04 03:11 29.55454 -81.43676 14342 ft 309 kts 342°
2026-05-04 03:11 29.57457 -81.44318 13974 ft 299 kts 333°
2026-05-04 03:12 29.59323 -81.45308 13651 ft 293 kts 325°
2026-05-04 03:12 29.61003 -81.46593 13417 ft 288 kts 317°
2026-05-04 03:12 29.62479 -81.48127 13107 ft 285 kts 310°
2026-05-04 03:12 29.63872 -81.49736 12776 ft 284 kts 311°
2026-05-04 03:13 29.65270 -81.51344 12450 ft 284 kts 311°
2026-05-04 03:13 29.66665 -81.52948 12125 ft 283 kts 311°
2026-05-04 03:13 29.68058 -81.54551 11810 ft 283 kts 311°
2026-05-04 03:13 29.69452 -81.56158 11492 ft 283 kts 312°
2026-05-04 03:14 29.70840 -81.57763 11169 ft 283 kts 312°
2026-05-04 03:14 29.72230 -81.59372 10856 ft 282 kts 312°
2026-05-04 03:14 29.73616 -81.60974 10551 ft 282 kts 313°
2026-05-04 03:14 29.75137 -81.62414 10237 ft 284 kts 325°
2026-05-04 03:15 29.76917 -81.63416 9923 ft 287 kts 339°
2026-05-04 03:15 29.78864 -81.63918 9583 ft 289 kts 352°
2026-05-04 03:15 29.80873 -81.63882 9249 ft 290 kts
2026-05-04 03:15 29.82853 -81.63428 8925 ft 290 kts 10°
2026-05-04 03:16 29.84816 -81.62950 8594 ft 288 kts 10°
2026-05-04 03:16 29.86770 -81.62475 8271 ft 285 kts 11°
2026-05-04 03:16 29.88708 -81.62002 7957 ft 284 kts 11°
2026-05-04 03:16 29.90617 -81.61536 7632 ft 282 kts 11°
2026-05-04 03:17 29.92531 -81.61072 7394 ft 281 kts 11°
2026-05-04 03:17 29.94438 -81.60609 7179 ft 280 kts 11°
2026-05-04 03:17 29.96333 -81.60148 6967 ft 279 kts 11°
2026-05-04 03:17 29.98238 -81.59686 6746 ft 278 kts 11°
2026-05-04 03:18 30.00130 -81.59227 6539 ft 277 kts 11°
2026-05-04 03:18 30.02015 -81.58770 6306 ft 276 kts 11°
2026-05-04 03:18 30.03890 -81.58314 6079 ft 275 kts 11°
2026-05-04 03:18 30.05758 -81.57858 5852 ft 273 kts 11°
2026-05-04 03:19 30.07616 -81.57406 5632 ft 272 kts 11°
2026-05-04 03:19 30.09462 -81.56957 5405 ft 271 kts 11°
2026-05-04 03:19 30.11300 -81.56509 5183 ft 269 kts 11°
2026-05-04 03:19 30.13124 -81.56063 5019 ft 268 kts 12°
2026-05-04 03:20 30.14930 -81.55622 4986 ft 264 kts 12°
2026-05-04 03:20 30.16731 -81.55182 4988 ft 264 kts 11°
2026-05-04 03:20 30.18526 -81.54744 4986 ft 263 kts 12°
2026-05-04 03:20 30.20318 -81.54308 4985 ft 264 kts 12°
2026-05-04 03:21 30.22116 -81.53869 4983 ft 264 kts 11°
2026-05-04 03:21 30.23907 -81.53427 5009 ft 263 kts 12°
2026-05-04 03:21 30.25707 -81.52980 5010 ft 264 kts 12°
2026-05-04 03:21 30.27482 -81.52538 5009 ft 264 kts 12°
2026-05-04 03:22 30.29302 -81.52085 5011 ft 264 kts 12°
2026-05-04 03:22 30.31072 -81.51644 5010 ft 264 kts 12°
2026-05-04 03:22 30.32867 -81.51195 5010 ft 264 kts 12°
2026-05-04 03:22 30.34668 -81.50785 5007 ft 264 kts
2026-05-04 03:23 30.36460 -81.51102 5010 ft 264 kts 336°
2026-05-04 03:23 30.37907 -81.52385 4950 ft 266 kts 308°
2026-05-04 03:23 30.38649 -81.54317 4817 ft 267 kts 279°
2026-05-04 03:23 30.38516 -81.56451 4682 ft 269 kts 256°
2026-05-04 03:24 30.37993 -81.58532 4554 ft 269 kts 253°
2026-05-04 03:24 30.37431 -81.60602 4428 ft 270 kts 253°
2026-05-04 03:24 30.36863 -81.62672 4262 ft 271 kts 253°
2026-05-04 03:24 30.36295 -81.64748 4008 ft 269 kts 253°
2026-05-04 03:25 30.35737 -81.66818 3766 ft 267 kts 253°
2026-05-04 03:25 30.35184 -81.68860 3531 ft 265 kts 253°
2026-05-04 03:25 30.34631 -81.70893 3283 ft 264 kts 253°
2026-05-04 03:25 30.34085 -81.72931 3081 ft 265 kts 252°
2026-05-04 03:26 30.33552 -81.74967 3017 ft 259 kts 253°
2026-05-04 03:26 30.33052 -81.76887 3023 ft 240 kts 253°
2026-05-04 03:26 30.32586 -81.78673 3026 ft 223 kts 253°
2026-05-04 03:26 30.32156 -81.80330 3025 ft 210 kts 253°
2026-05-04 03:27 30.31733 -81.81963 3031 ft 213 kts 253°
2026-05-04 03:27 30.31310 -81.83593 3030 ft 214 kts 253°
2026-05-04 03:27 30.30880 -81.85246 3020 ft 214 kts 253°
2026-05-04 03:27 30.30451 -81.86894 3019 ft 214 kts 253°
2026-05-04 03:28 30.30115 -81.88570 3004 ft 214 kts 270°
2026-05-04 03:28 30.30528 -81.90191 3018 ft 213 kts 307°
2026-05-04 03:28 30.31604 -81.91319 2953 ft 212 kts 328°
2026-05-04 03:28 30.32877 -81.92171 2831 ft 212 kts 333°
2026-05-04 03:29 30.34200 -81.92919 2711 ft 211 kts 337°
2026-05-04 03:29 30.35555 -81.93549 2578 ft 206 kts 341°
2026-05-04 03:29 30.36866 -81.94120 2446 ft 197 kts 341°
2026-05-04 03:29 30.38137 -81.94608 2315 ft 189 kts 351°
2026-05-04 03:30 30.39419 -81.94614 2184 ft 184 kts 20°
2026-05-04 03:30 30.40479 -81.93804 2258 ft 186 kts 51°
2026-05-04 03:30 30.41380 -81.92682 2499 ft 195 kts 45°
2026-05-04 03:30 30.42378 -81.91593 2287 ft 195 kts 49°
2026-05-04 03:31 30.43194 -81.90361 2162 ft 192 kts 62°
2026-05-04 03:31 30.43730 -81.89039 2090 ft 190 kts 70°
2026-05-04 03:31 30.44195 -81.87634 2015 ft 182 kts 72°
2026-05-04 03:31 30.44612 -81.86306 2011 ft 168 kts 72°
2026-05-04 03:32 30.44987 -81.85095 2053 ft 155 kts 72°
2026-05-04 03:32 30.45345 -81.83933 2023 ft 151 kts 72°
2026-05-04 03:32 30.45691 -81.82809 2022 ft 148 kts 72°
2026-05-04 03:32 30.46036 -81.81687 2005 ft 143 kts 72°
2026-05-04 03:33 30.46251 -81.80987 1956 ft 137 kts 73°
2026-05-04 03:33 30.46565 -81.79966 1817 ft 133 kts 73°
2026-05-04 03:33 30.46872 -81.78964 1661 ft 131 kts 73°
2026-05-04 03:33 30.47175 -81.77978 1495 ft 128 kts 73°
2026-05-04 03:34 30.47470 -81.77016 1324 ft 126 kts 73°
2026-05-04 03:34 30.47763 -81.76063 1160 ft 124 kts 74°
2026-05-04 03:34 30.48052 -81.75121 994 ft 125 kts 72°
2026-05-04 03:34 30.48343 -81.74171 827 ft 126 kts 71°
2026-05-04 03:35 30.48639 -81.73207 661 ft 128 kts 71°
2026-05-04 03:35 30.48935 -81.72241 480 ft 129 kts 71°
2026-05-04 03:35 30.49236 -81.71258 311 ft 130 kts 70°
2026-05-04 03:35 30.49542 -81.70272 124 ft 130 kts 70°
2026-05-04 03:36 30.49830 -81.69308 42 ft 119 kts 71°
2026-05-04 03:36 30.50049 -81.68597 38 ft 76 kts 70°
2026-05-04 03:36 30.50157 -81.68206 40 ft 32 kts 78°
2026-05-04 03:36 30.50141 -81.68042 39 ft 12 kts 125°
2026-05-04 03:37 30.50138 -81.68038 39 ft 0 kts 127°
2026-05-04 03:37 30.50135 -81.68034 39 ft 3 kts 127°
2026-05-04 03:38 30.50064 -81.68007 39 ft 15 kts 207°
2026-05-04 03:38 30.50027 -81.68111 37 ft 14 kts 250°
2026-05-04 03:38 30.49991 -81.68225 38 ft 16 kts 250°
2026-05-04 03:38 30.49948 -81.68361 36 ft 19 kts 250°
2026-05-04 03:39 30.49859 -81.68441 36 ft 18 kts 189°
2026-05-04 03:39 30.49734 -81.68466 36 ft 19 kts 189°
2026-05-04 03:39 30.49602 -81.68506 37 ft 20 kts 194°
2026-05-04 03:39 30.49486 -81.68531 39 ft 10 kts 191°
2026-05-04 03:40 30.49456 -81.68537 39 ft 0 kts 189°
2026-05-04 03:40 30.49453 -81.68537 39 ft 2 kts 189°
2026-05-04 03:40 30.49430 -81.68543 39 ft 4 kts 198°
2026-05-04 03:40 30.49401 -81.68555 39 ft 0 kts 200°